Simultaneous Nadir Overpasses (SNOs) Predictions

Prediction of SNOs between METOP-A and TERRA Satellite Orbit:

Table of predicted SNOs for the next 14.0 days since TLE Epoch: 10/23/2011
Index Date Time (METOP-A) METOP-A Lat,Lon TERRA Lat,Lon Distance(km) Time Diff (sec)
1 10/25/2011 15:49:26 -81.21, 168.74 -81.22, 168.85 2.18 54
2 10/25/2011 16:40:05 81.22, -23.46 81.23, -23.40 1.31 19
3 10/28/2011 11:23:52 -81.21,-125.04 -81.20,-125.04 0.67 45
4 10/28/2011 12:14:31 81.21, 42.75 81.21, 42.70 1.23 28
5 10/31/2011 06:58:17 -81.21, -58.50 -81.21, -58.51 0.43 36
6 10/31/2011 07:48:56 81.22, 109.28 81.21, 109.21 1.29 37
7 11/03/2011 02:32:42 -81.21, 7.97 -81.21, 8.05 1.30 27
8 11/03/2011 03:23:20 81.22, 175.74 81.22, 175.76 0.35 46
9 11/05/2011 22:07:06
